Terug naar catalogus

COSMOS 2474

GLONASS

ActiefNavigatieMEO
NORAD 37829·PAYLOAD·🇷🇺 Russia

Gelanceerd Oct 2, 2011 vanaf Plesetsk Cosmodrome

Loading…

Volgende Passages (komende 24 uur)

TLE

VersSource: Space-Track

Epoch: Sep 9, 2026, 00:43 UTC

1 37829U 11055A   26252.03029118  .00000031  00000-0  00000-0 0  9996
2 37829  65.3421  70.0577 0009937 236.0089 120.7313  2.13101126116231

Volg COSMOS 2474 in realtime met AllMySat

Download on the App Store